User: anonymous   Login
Location: Agendoh
(31.0664°N, 8.9343°W)
Time: 07:56:14
(UTC+00:00)
Language:

Cosmos 2034 Rocket - Orbit

View from above orbital plane
View from above orbital plane
View from above satellite
View from above satellite

Ground track
Ground track

The orbit data is extracted from the following two-line orbital elements,

1 20150U 89059B   22147.87202601  .00000024  00000-0  95397-5 0  9995
2 20150  82.9412 194.5535 0027419 280.6151 254.1629 13.75681938648439
Epoch (UTC): 27 May 2022 20:55:43
Eccentricity: 0.0027419
inclination: 82.9412°
perigee height: 959 km
apogee height: 999 km
right ascension of ascending node: 194.5535°
argument of perigee: 280.6151°
revolutions per day: 13.75681938
mean anomaly at epoch: 254.1629°
orbit number at epoch: 64843

The dashed part of the orbit path shows where the satellite is in the earth's shadow,  

DLR